Location: Katowice
(50.2611°N, 19.0242°E)
Time: 11:59:13
(UTC+02:00)

A-11 Canister half - Pass Details

Date: 26 July 2019
Orbit: 1526 x 1683 km, 47.3° (Epoch: 21 August)

Event Time Altitude Azimuth Distance (km) Brightness Sun altitude
Rises 20:19:14 0° 231° (SW) 4,924 12.0 1.6°
Reaches altitude 10° 20:22:29 10° 227° (SW) 3,931 11.4 1.1°
Maximum altitude 20:32:11 55° 154° (SSE) 1,921 9.3 -0.2°
Drops below altitude 10° 20:41:40 10° 80° (E) 3,844 10.7 -1.5°
Sets 20:44:49 0° 76° (ENE) 4,810 11.2 -1.9°
